Weather History for CWBK - August, 2013

Change the Weather History Date:

Thursday, August 22, 2013

  Actual Average Record
Temperature  
Mean Temperature 76 °F -  
Max Temperature 87 °F - - ()
Min Temperature 65 °F - - ()
Cooling Degree Days 11    
Growing Degree Days 26 (Base 50)    
Moisture  
Dew Point 63 °F    
Average Humidity 69    
Maximum Humidity 86    
Minimum Humidity 38    
Precipitation  
Precipitation 0.00 in - - ()
Sea Level Pressure  
Sea Level Pressure 29.85 in    
Wind  
Wind Speed 7 mph ()    
Max Wind Speed 12 mph    
Max Gust Speed 18 mph    
T = Trace of Precipitation, MM = Missing Value Source: Averaged Metar Reports

Daily Weather History Graph

Daily Weather History Graph

Search for Another Location

Airport or City:

Trip Planner

Search our weather history database for the weather conditions in past years. The results will help you decide how hot, cold, wet, or windy it might be!

Date:

Astronomy

Aug. 22, 2013 Rise Set
Actual Time 6:19 AM ADT 8:06 PM ADT
Civil Twilight 5:47 AM ADT 8:38 PM ADT
Nautical Twilight 5:09 AM ADT 9:16 PM ADT
Astronomical Twilight 4:26 AM ADT 9:58 PM ADT
Moon 8:37 PM ADT (8/22) 8:11 AM ADT (8/22)
Length of Visible Light 14h 50m
Length of Day
13h 46m
Full, 97% of the Moon is Illuminated
Aug 22
Full
Aug 28
Last Quarter
Sep 5
New
Sep 12
First Quarter
Sep 19
Full

Hourly Weather History & Observations

Time (ADT) Temp. Heat Index Dew Point Humidity Pressure Visibility Wind Dir Wind Speed Gust Speed Precip Events Conditions
12:00 AM 67.5 °F - 61.5 °F 81% 29.96 in - SW 6.9 mph - N/A   Unknown
1:00 AM 66.4 °F - 61.7 °F 85% 29.95 in - SSW 8.1 mph - N/A   Unknown
2:00 AM 66.7 °F - 61.9 °F 84% 29.93 in - SSW 5.8 mph - N/A   Unknown
3:00 AM 66 °F - 62 °F 82% 29.92 in - SW 8.1 mph - -  
3:00 AM 66.4 °F - 61.7 °F 85% 29.92 in - SW 8.1 mph - N/A   Unknown
4:00 AM 66.2 °F - 62.1 °F 86% 29.91 in - SW 9.2 mph - N/A   Unknown
5:00 AM 65.7 °F - 61.0 °F 85% 29.91 in - SSW 5.8 mph - N/A   Unknown
6:00 AM 65.5 °F - 61.0 °F 85% 29.89 in - SSW 6.9 mph - N/A   Unknown
7:00 AM 65.8 °F - 60.6 °F 83% 29.89 in - SSW 8.1 mph - N/A   Unknown
8:00 AM 68.0 °F - 61.0 °F 78% 29.89 in - SSW 9.2 mph - N/A   Unknown
9:00 AM 70.9 °F - 61.9 °F 73% 29.88 in - SSW 8.1 mph - N/A   Unknown
10:00 AM 74.1 °F - 61.9 °F 65% 29.87 in - SSW 9.2 mph - N/A   Unknown
11:00 AM 77.4 °F - 63.5 °F 62% 29.86 in - SSW 8.1 mph - N/A   Unknown
12:00 PM 79.9 °F - 63.7 °F 58% 29.86 in - SW 11.5 mph 18.4 mph N/A   Unknown
1:00 PM 82.8 °F 84.2 °F 64.2 °F 53% 29.84 in - SW 8.1 mph - N/A   Unknown
2:00 PM 85.1 °F 86.4 °F 63.7 °F 49% 29.82 in - SW 8.1 mph - N/A   Unknown
3:00 PM 85 °F - 63 °F 38% 29.80 in - SW 9.2 mph - -  
3:00 PM 84.7 °F 85.6 °F 63.1 °F 48% 29.80 in - SW 9.2 mph 18.4 mph N/A   Unknown
4:00 PM 87.3 °F 87.5 °F 61.5 °F 42% 29.78 in - WSW 8.1 mph - N/A   Unknown
5:00 PM 85.8 °F 85.2 °F 58.8 °F 40% 29.78 in - WSW 9.2 mph - N/A   Unknown
6:00 PM 83.5 °F 84.9 °F 64.4 °F 52% 29.78 in - WSW 8.1 mph - N/A   Unknown
7:00 PM 79.7 °F - 66.7 °F 64% 29.78 in - SW 5.8 mph - N/A   Unknown
8:00 PM 76.8 °F - 65.8 °F 69% 29.77 in - SSW 4.6 mph - N/A   Unknown
9:00 PM 74 °F - 66 °F 70% 29.78 in - SSW 5.8 mph - -  
9:00 PM 73.9 °F - 66.0 °F 76% 29.78 in - SSW 5.8 mph - N/A   Unknown
10:00 PM 71.4 °F - 64.8 °F 79% 29.78 in - SSW 6.9 mph - N/A   Unknown
11:00 PM 69.8 °F - 63.9 °F 81% 29.78 in - SSW 5.8 mph - N/A   Unknown